This is the latest recevied weather packets stored in our database for station/object XE2OR-10. If no packets are shown the sender has not sent any weather packets the latest 10 day(s).
| Time | Temp. | Humidity | Pressure | Rain* | Wind** | Luminosity | Snow |
|---|---|---|---|---|---|---|---|
| 1777409329 | 33.33° C | 75% | 1000.6 hPa | 0 mm | - | 725 W/m² | - |
| 1777409033 | 32.22° C | 77% | 1000.8 hPa | 0 mm | - | 415 W/m² | - |
| 1777408730 | 31.67° C | 78% | 1000.7 hPa | 0 mm | - | 427 W/m² | - |
| 1777408429 | 32.22° C | 77% | 1001.1 hPa | 0 mm | - | 573 W/m² | - |
| 1777408129 | 32.22° C | 77% | 1001 hPa | 0 mm | - | 688 W/m² | - |
| 1777407833 | 32.22° C | 76% | 1001 hPa | 0 mm | - | 680 W/m² | - |
| 1777407529 | 32.22° C | 77% | 1001 hPa | 0 mm | - | 625 W/m² | - |
| 1777407233 | 32.22° C | 78% | 1001.1 hPa | 0 mm | - | 783 W/m² | - |
| 1777406930 | 32.78° C | 77% | 1001.1 hPa | 0 mm | - | 507 W/m² | - |
| 1777406629 | 33.33° C | 76% | 1001.3 hPa | 0 mm | - | 766 W/m² | - |
| 1777406328 | 33.33° C | 78% | 1001.3 hPa | 0 mm | - | 787 W/m² | - |
| 1777406033 | 32.22° C | 77% | 1001.4 hPa | 0 mm | - | 806 W/m² | - |
| 1777405729 | 31.67° C | 78% | 1001.7 hPa | 0 mm | - | 758 W/m² | - |
| 1777405433 | 32.22° C | 78% | 1001.7 hPa | 0 mm | - | 641 W/m² | - |
| 1777405129 | 32.22° C | 78% | 1001.8 hPa | 0 mm | - | 796 W/m² | - |
| 1777404829 | 32.22° C | 77% | 1001.7 hPa | 0 mm | - | 735 W/m² | - |
| 1777404529 | 31.67° C | 79% | 1001.8 hPa | 0 mm | - | 747 W/m² | - |
| 1777404233 | 31.11° C | 80% | 1001.9 hPa | 0 mm | - | 615 W/m² | - |
| 1777403929 | 31.67° C | 79% | 1001.8 hPa | 0 mm | - | 773 W/m² | - |
| 1777403633 | 31.11° C | 80% | 1002 hPa | 0 mm | - | 806 W/m² | - |
| 1777403329 | 31.11° C | 81% | 1002 hPa | 0 mm | - | 428 W/m² | - |
| 1777403029 | 30.56° C | 81% | 1002.1 hPa | 0 mm | - | 815 W/m² | - |
| 1777402729 | 30° C | 83% | 1002.3 hPa | 0 mm | - | 824 W/m² | - |
| 1777402432 | 30° C | 82% | 1002.4 hPa | 0 mm | - | 588 W/m² | - |
| 1777402129 | 30° C | 84% | 1002.5 hPa | 0 mm | - | 459 W/m² | - |
* Rain latest hour (hover to see other rain measurements)
** Current wind speed in m/s (hover to see current wind gust speed)